[Iaude] MPEC A03: 2013 TB6 [a=0.79,e=0.48,i=14.4,H=22.6]

mpec at mpcdb1.cfa.harvard.edu mpec at mpcdb1.cfa.harvard.edu
Tue Jan 1 09:29:17 EST 2019


M.P.E.C. 2019-A03                                Issued 2019 Jan. 1, 14:24 UT
 
     The Minor Planet Electronic Circulars contain information on unusual
         minor planets and routine data on comets.  They are published
    on behalf of Division F of the International Astronomical Union by the
          Minor Planet Center, Smithsonian Astrophysical Observatory,
                          Cambridge, MA 02138, U.S.A.

             Prepared using the Tamkin Foundation Computer Network

                              MPC at CFA.HARVARD.EDU
            URL https://www.minorplanetcenter.net/    ISSN 1523-6714


                                   2013 TB6
 
                           Revision to MPEC 2013-T52
 
Additional Observations:
     K13T06B  C2018 11 06.63461009 03 18.852+45 37 44.41         23.35GVEA003T12
     K13T06B  C2018 11 06.63865909 03 20.234+45 37 51.70         23.12GVEA003T12
     K13T06B  C2018 11 08.59348909 15 27.064+46 35 56.61         23.15GVEA003T12
     K13T06B  C2018 11 08.59759409 15 28.589+46 36 04.15         23.24GVEA003T12
 
Observer details:
T12 Mauna Kea-UH/Tholen NEO Follow-Up (2.24-m).  Observer D. J. Tholen.
    2.24-m f/10.1 reflector + CCD.
 
First and last observations above in comparison with prediction:
Residuals in seconds of arc, reference and Delta-T
181106 T12 35.2+ 18.0-    181108 T12 35.8+ 21.1-    MPO278282   -0.011 day
 
Orbital elements:
2013 TB6                                                 Earth MOID = 0.0484 AU
Epoch 2019 Apr. 27.0 TT = JDT 2458600.5                 MPC
M 106.68675              (2000.0)            P               Q
n   1.41564085     Peri.  201.87811     -0.71781473     +0.68968052
a   0.7855382      Node    22.61424     -0.59640002     -0.53847025
e   0.4834655      Incl.   14.35021     -0.35923396     -0.48413900
P   0.70           H   22.6           G   0.15           U   4
Residuals in seconds of arc
131004 703  0.8-  0.2-    131009 H21  0.2+  0.1-    131016 926  0.1-  0.2+
131004 703  0.4+  1.0-    131009 703  0.4+  0.1+    131020 H21  0.4+  0.5-
131004 703  0.4-  0.4+    131009 703  0.0   0.2+    131020 H21  0.1+  0.4-
131004 703  0.0   1.1-    131009 703  0.5-  1.1+    131020 H21  0.6+  0.3-
131004 703  0.0   0.8+    131009 703 (0.2+  1.6+)   131022 703  0.7+  0.3+
131004 703  0.3-  0.3+    131010 H21  0.1-  0.1-    131022 703  1.0-  1.1+
131004 703  0.1+  0.9+    131010 H21  0.1-  0.0     131022 703  0.5-  0.4+
131004 703 (0.2-  2.1+)   131010 H21  0.1-  0.1+    131025 H21  0.2+  0.5+
131005 G96  0.2-  0.1-    131011 H21  0.1+  0.0     131025 H21  0.1+  0.5+
131005 G96  0.1+  0.1-    131011 H21  0.2+  0.1+    131025 H21  0.1-  0.0
131005 G96  0.2+  0.2-    131011 H21  0.1+  0.1-    131025 F51  0.0   0.1-
131005 G96  0.2+  0.1+    131011 H21  0.0   0.1-    131025 F51  0.1+  0.2-
131005 G96  0.1+  0.1-    131011 H21  0.1+  0.1+    131026 H21  0.2+  0.1-
131006 854  1.2-  1.3-    131011 703  0.4-  0.1+    131026 H21  0.1-  0.1+
131006 854  1.0+  0.1+    131011 703  0.0   0.3+    131026 H21  0.1+  0.3-
131006 926  0.0   0.2-    131011 703  0.4+  0.5+    131028 711  0.1-  0.0
131006 926  0.0   0.1+    131012 926  0.2-  0.0     131028 711  0.1-  0.1-
131006 926  0.1+  0.1-    131012 926  0.1-  0.2-    131028 711  0.3-  0.1-
131008 H21  0.0   0.4+    131012 926  0.3-  0.1-    131119 711  0.1+  0.2+
131008 H21  0.2+  0.0     131014 H21  0.1-  0.0     131119 711  0.3+  0.3+
131008 H21  0.0   0.0     131014 H21  0.1-  0.0     181106 T12  0.1+  0.0
131008 H21  0.2+  0.0     131014 H21  0.2-  0.0     181106 T12  0.0   0.1-
131008 H21  0.3+  0.0     131014 H21  0.1-  0.1-    181108 T12  0.0   0.0
131009 H21  0.2+  0.1+    131016 926  0.2-  0.0     181108 T12  0.2-  0.0
131009 H21  0.3+  0.2-    131016 926  0.4-  0.0

Ephemeris:
2013 TB6                 a,e,i = 0.79, 0.48, 14                  q = 0.4058
Date    TT    R. A. (2000) Decl.     Delta      r     Elong.  Phase     V
2018 12 02    13 14 37.8 +49 54 53   0.2643  0.9934    83.9    80.7    22.5
...
2018 12 17    15 47 23.8 +32 04 12   0.2689  0.8868    61.3   103.3    23.3
...
2018 12 25    16 36 23.4 +19 49 02   0.3013  0.8189    49.2   114.7    24.0
...
2018 12 31    17 03 49.5 +11 10 12   0.3392  0.7630    41.5   121.4    24.6
2019 01 01    17 07 52.8 +09 48 21   0.3467  0.7533    40.3   122.3    24.7
2019 01 02    17 11 49.2 +08 27 56   0.3545  0.7435    39.3   123.2    24.8
...
2019 01 08    17 33 40.5 +00 56 38   0.4088  0.6827    33.8   126.7    25.2
...
2019 01 16    18 00 50.9 -07 41 15   0.5037  0.5978    29.3   126.3    25.4
...
2019 01 31    19 01 28.9 -19 15 30   0.7679  0.4506    26.2   104.9    24.2

A. U. Tomatic                (C) Copyright 2019 MPC           M.P.E.C. 2019-A03



More information about the Iaude mailing list